TimeCDT,TemperatureF,Dew PointF,Humidity,Sea Level PressureIn,VisibilityMPH,Wind Direction,Wind SpeedMPH,Gust SpeedMPH,PrecipitationIn,Events,Conditions,WindDirDegrees,DateUTC
12:53 AM,77.0,69.1,76,29.91,10.0,Calm,Calm,-,N/A,,Clear,0,2013-06-11 05:53:00
1:53 AM,73.9,69.1,85,29.91,10.0,Calm,Calm,-,N/A,,Clear,0,2013-06-11 06:53:00
2:53 AM,73.0,69.1,87,29.91,10.0,West,3.5,-,N/A,,Clear,260,2013-06-11 07:53:00
3:53 AM,73.0,69.1,87,29.92,10.0,WSW,3.5,-,N/A,,Clear,240,2013-06-11 08:53:00
4:53 AM,73.0,69.1,87,29.93,10.0,WSW,3.5,-,N/A,,Clear,250,2013-06-11 09:53:00
5:50 AM,71.6,68.0,88,29.96,10.0,Calm,Calm,-,N/A,,Partly Cloudy,0,2013-06-11 10:50:00
5:53 AM,72.0,68.0,87,29.95,10.0,Calm,Calm,-,N/A,,Clear,0,2013-06-11 10:53:00
6:53 AM,75.0,71.1,87,29.98,10.0,SW,3.5,-,N/A,,Clear,230,2013-06-11 11:53:00
7:53 AM,81.0,71.1,72,29.99,10.0,SW,5.8,-,N/A,,Clear,230,2013-06-11 12:53:00
8:53 AM,86.0,71.1,61,30.00,10.0,WSW,5.8,-,N/A,,Clear,240,2013-06-11 13:53:00
9:53 AM,89.1,72.0,57,29.99,-9999.0,WSW,6.9,-,N/A,,Unknown,240,2013-06-11 14:53:00
10:53 AM,91.9,71.1,50,29.99,10.0,SW,12.7,-,N/A,,Clear,230,2013-06-11 15:53:00
11:53 AM,96.1,69.1,41,29.99,10.0,West,8.1,-,N/A,,Clear,280,2013-06-11 16:53:00
12:53 PM,97.0,71.1,43,29.98,10.0,WSW,8.1,-,N/A,,Clear,240,2013-06-11 17:53:00
1:53 PM,97.0,72.0,44,29.96,10.0,SSW,11.5,-,N/A,,Clear,200,2013-06-11 18:53:00
2:53 PM,98.1,71.1,42,29.94,10.0,SSW,13.8,18.4,N/A,,Clear,200,2013-06-11 19:53:00
3:53 PM,100.0,69.1,37,29.93,10.0,SW,11.5,19.6,N/A,,Clear,220,2013-06-11 20:53:00
4:53 PM,99.0,69.1,38,29.93,10.0,SW,16.1,19.6,N/A,,Clear,220,2013-06-11 21:53:00
5:53 PM,97.0,70.0,41,29.92,10.0,SW,12.7,21.9,N/A,,Clear,220,2013-06-11 22:53:00
6:53 PM,93.0,71.1,49,29.93,10.0,SSW,10.4,-,N/A,,Clear,210,2013-06-11 23:53:00
7:53 PM,90.0,73.0,57,29.93,10.0,SW,6.9,-,N/A,,Clear,220,2013-06-12 00:53:00
8:53 PM,86.0,73.0,65,29.93,10.0,SW,6.9,-,N/A,,Clear,220,2013-06-12 01:53:00
9:53 PM,84.0,72.0,67,29.95,10.0,SW,5.8,-,N/A,,Clear,220,2013-06-12 02:53:00
10:53 PM,82.9,72.0,69,29.96,10.0,SW,5.8,-,N/A,,Clear,220,2013-06-12 03:53:00
11:53 PM,81.0,72.0,74,29.96,10.0,SSW,5.8,-,N/A,,Clear,200,2013-06-12 04:53:00